Tracking 18843 objects as of 20-November-2017
HD Live streaming from Space Station
objects crossing your sky now

FENGYUN 1C DEB

Track FENGYUN 1C DEB now!
10-day predictions


NORAD ID: 36259
Int'l Code: 1999-025DWL
Perigee: 815.2 km
Apogee: 818.7 km
Inclination: 98.9 °
Period: 101.1 minutes
Semi major axis: 7187 km
RCS: 0.0025 m2 (small)
Launch date: May 10, 1999
Source: People's Republic of China (PRC)
Launch site: Taiyaun Space Center, China (TSC)

Note: This is SATELLITE DEBRIS
aabbcc
Your satellite tracking list
Your tracking list is empty




NASA's NSSDC Master Catalog

Two Line Element Set (TLE):
1 36259U 99025DWL 17323.93055937 +.00001121 +00000-0 +50225-3 0  9999
2 36259 098.8727 002.2457 0002420 309.8123 173.0637 14.24603551300137
Source of the keplerian elements: AFSPC